Date,TemperatureHighF,TemperatureAvgF,TemperatureLowF,DewpointHighF,DewpointAvgF,DewpointLowF,HumidityHigh,HumidityAvg,HumidityLow,PressureMaxIn,PressureMinIn,WindSpeedMaxMPH,WindSpeedAvgMPH,GustSpeedMaxMPH,PrecipitationSumIn
2013-1-1,59.8,53.4,42.4,58.4,52.5,41.7,98,97,89,30.12,29.91,0,0,0,1.32
2013-1-2,42.2,39.0,35.9,41.7,37.4,33.0,98,94,88,30.24,30.09,0,0,0,0.00
2013-1-3,50.5,38.2,32.6,33.2,26.2,19.8,90,64,37,30.33,29.82,6,0,6,0.00
2013-1-4,58.4,40.8,29.0,36.0,28.8,25.2,91,66,33,30.41,29.88,8,1,8,0.00
2013-1-5,48.1,41.2,34.4,42.6,37.7,31.0,98,88,63,30.36,30.21,5,0,5,0.37
2013-1-6,59.5,44.7,33.0,45.3,39.4,31.2,98,84,49,30.27,30.18,8,1,8,0.04
2013-1-7,63.8,41.5,28.3,42.8,33.3,27.1,98,77,35,30.30,30.15,6,0,6,0.00
2013-1-8,66.7,52.2,35.9,56.5,47.3,34.1,97,84,59,30.21,30.06,5,0,5,0.05
2013-1-9,63.2,57.9,55.7,62.5,57.3,55.0,98,98,97,30.18,30.09,5,0,5,0.45
2013-1-10,67.4,65.9,63.1,66.8,65.3,62.5,98,98,98,30.15,29.88,11,2,11,0.42
2013-1-11,67.6,64.8,61.1,67.0,64.2,60.5,98,98,98,30.06,29.94,6,0,6,0.42
2013-1-12,80.0,70.6,67.0,69.1,67.1,65.2,98,89,66,30.00,29.85,12,4,12,0.42
2013-1-13,74.9,60.2,42.5,68.2,57.4,41.1,98,91,68,30.09,29.79,15,4,15,1.08
2013-1-14,42.9,38.8,34.4,42.1,38.0,33.7,98,97,93,30.18,30.06,6,1,7,0.95
2013-1-15,40.7,38.0,36.4,40.2,37.5,35.7,98,98,97,30.09,29.97,7,1,7,0.83
2013-1-16,36.8,35.8,34.6,36.3,35.3,34.1,98,98,98,30.09,29.97,10,2,10,0.83
2013-1-17,51.7,38.8,32.5,39.2,33.7,30.4,98,84,47,30.39,30.03,12,3,12,0.83
2013-1-18,64.9,41.8,29.6,40.5,31.7,26.6,98,73,29,30.50,30.33,6,0,6,0.83
2013-1-19,66.7,44.1,28.0,43.8,35.6,25.7,95,76,42,30.33,30.18,8,1,8,0.83
2013-1-20,71.3,46.2,31.0,49.3,36.4,29.8,98,74,33,30.21,30.09,6,0,6,0.00
2013-1-21,64.7,45.0,32.3,48.3,35.5,30.2,95,73,40,30.21,30.09,8,1,8,0.00
2013-1-22,53.5,40.7,34.8,34.7,27.5,23.1,85,61,38,30.33,30.18,5,0,5,0.00
2013-1-23,73.1,50.1,34.4,49.2,40.4,30.8,90,73,35,30.33,30.18,10,1,10,0.00
2013-1-24,77.1,54.6,40.2,59.7,49.3,38.5,98,84,51,30.27,30.15,8,0,8,0.00
2013-1-25,78.4,61.1,47.0,59.1,52.7,46.5,98,77,43,30.18,30.03,12,1,12,0.00
2013-1-26,60.2,54.6,47.2,53.9,51.2,45.9,98,89,75,30.21,30.12,6,0,6,0.00
2013-1-27,77.6,58.1,46.1,61.5,51.4,45.4,98,82,43,30.24,30.15,10,1,10,0.00
2013-1-28,74.2,62.6,56.0,62.7,58.6,55.2,98,88,61,30.21,30.06,8,1,8,0.00
2013-1-29,82.3,71.0,62.7,67.0,64.2,62.0,98,81,55,30.06,29.71,18,5,18,0.00
2013-1-30,59.3,53.9,38.2,55.7,48.7,25.9,98,84,46,30.06,29.65,21,2,21,0.67
2013-1-31,64.5,45.6,30.1,35.7,28.8,24.3,91,58,26,30.21,30.06,10,1,10,0.00
2013-2-1,59.5,48.6,33.0,32.4,25.7,22.2,75,43,28,30.42,30.27,8,2,8,0.00
2013-2-2,69.9,42.5,30.8,43.0,29.9,22.6,74,63,36,30.27,30.15,9,1,9,0.00
2013-2-3,70.1,47.2,32.6,47.8,34.3,27.8,94,68,26,30.21,30.06,14,1,14,0.00
2013-2-4,61.1,45.2,37.1,44.0,34.6,29.8,84,68,39,30.09,29.91,6,1,6,0.00
2013-2-5,68.8,60.5,48.5,57.9,54.9,47.7,98,83,66,30.00,29.94,6,1,6,0.00
2013-2-6,73.7,55.9,45.1,58.9,50.4,44.5,98,85,49,30.09,29.94,7,1,7,0.25
2013-2-7,70.4,59.9,49.9,60.5,57.2,49.4,98,92,61,29.94,29.82,5,0,5,0.00
2013-2-8,59.8,52.2,42.9,59.1,50.5,39.3,98,94,73,30.18,29.91,6,0,6,0.00
2013-2-9,67.6,49.1,1.0,44.9,38.9,0.0,98,73,37,30.21,30.03,8,1,8,0.00
2013-2-10,64.1,58.6,1.0,63.6,57.6,0.0,98,96,86,30.03,29.85,10,2,12,1.66
2013-2-11,58.2,53.4,50.5,57.6,52.8,49.9,98,98,98,30.09,30.00,5,0,5,1.24
2013-2-12,52.3,50.4,49.2,51.7,49.9,48.7,98,98,97,30.09,29.74,7,1,7,1.46
2013-2-13,52.4,47.7,33.4,51.0,44.2,31.8,98,88,57,30.03,29.76,13,2,13,0.00
2013-2-14,65.8,43.9,29.9,45.2,34.6,28.9,98,75,35,30.09,30.00,8,1,8,0.00
2013-2-15,66.5,47.0,31.6,48.3,35.0,29.7,98,68,34,30.12,30.03,11,2,11,0.00
2013-2-16,53.0,42.1,28.9,30.6,21.7,0.0,100,46,28,30.24,30.12,17,3,17,0.00
2013-2-17,65.9,43.5,26.5,32.4,26.6,20.3,83,56,26,30.27,30.12,10,1,10,0.00
2013-2-18,68.8,55.8,36.4,56.7,46.1,31.9,98,72,45,30.12,29.85,19,5,19,0.70
2013-2-19,63.1,50.2,35.2,56.9,36.2,26.2,98,63,29,30.21,29.85,15,2,15,0.17
2013-2-20,60.7,39.4,33.4,32.2,27.4,20.9,81,65,26,30.24,30.03,10,0,10,0.00
2013-2-21,65.6,52.6,41.3,64.8,40.1,22.2,98,65,42,30.03,29.68,13,3,13,4.24
2013-2-22,70.3,56.4,50.8,60.0,51.6,40.2,98,87,36,29.97,29.85,6,1,6,0.62
2013-2-23,64.1,51.1,38.9,52.2,45.1,36.5,98,81,56,29.94,29.85,8,1,8,0.00
2013-2-24,75.8,53.5,34.4,45.2,39.1,33.7,98,64,29,29.97,29.74,8,1,8,0.00
2013-2-25,66.8,59.6,54.6,62.8,56.5,41.4,98,90,57,29.76,29.41,11,2,11,0.58
2013-2-26,57.5,45.9,34.6,50.7,34.2,31.3,90,65,49,29.85,29.44,12,2,12,0.00
2013-2-27,67.4,47.5,31.2,43.7,34.7,29.5,97,67,32,29.97,29.85,14,1,14,0.00
2013-2-28,58.2,43.5,33.7,35.5,29.9,25.8,92,62,33,30.06,29.97,13,2,13,0.00
2013-3-1,54.1,39.4,29.2,32.5,26.8,21.7,93,63,38,30.12,30.03,14,2,14,0.00
2013-3-2,40.4,33.9,27.8,30.4,22.7,16.8,89,65,47,30.18,30.09,14,2,14,0.00
2013-3-3,59.6,38.0,23.1,26.0,21.2,17.4,83,55,26,30.21,30.03,11,1,11,0.00
2013-3-4,76.0,53.3,30.5,52.8,38.5,23.4,89,61,31,30.06,29.82,17,4,17,0.00
2013-3-5,71.2,57.1,41.3,61.5,47.3,24.1,91,71,40,30.15,29.82,21,3,21,0.00
2013-3-6,57.5,43.9,32.1,29.9,25.9,22.5,77,51,34,30.27,30.15,12,2,12,0.00
2013-3-7,68.1,45.3,30.5,35.3,30.7,25.4,88,61,27,30.30,30.18,8,1,8,0.00
2013-3-8,76.4,52.8,32.3,41.4,34.9,28.9,92,57,23,30.27,30.09,8,1,8,0.00
2013-3-9,78.4,61.0,46.1,55.7,43.2,33.0,85,57,22,30.12,29.91,13,3,13,0.00
2013-3-10,79.8,65.1,56.9,63.8,57.8,53.9,98,79,46,29.94,29.79,20,4,20,1.04
2013-3-11,61.1,49.7,38.2,56.4,41.8,34.0,98,78,38,29.97,29.82,14,2,14,1.58
2013-3-12,66.5,47.2,32.1,47.2,32.6,28.4,98,63,27,30.18,29.97,13,1,13,0.00
2013-3-13,63.8,45.8,36.8,33.5,29.3,23.2,84,58,25,30.36,30.18,13,1,13,0.00
2013-3-14,73.3,49.3,31.4,36.6,30.8,25.9,85,55,24,30.39,30.21,8,1,8,0.00
2013-3-15,83.9,50.9,38.2,47.7,38.1,34.9,91,67,23,30.21,30.00,11,1,11,0.00
2013-3-16,84.3,64.2,45.1,55.2,47.3,41.6,96,59,30,30.00,29.88,12,2,12,0.00
2013-3-17,83.8,63.5,48.8,60.8,53.6,46.6,93,73,39,29.94,29.76,12,2,12,0.00
2013-3-18,89.5,68.3,55.5,66.9,61.5,53.6,98,82,39,29.94,29.71,19,2,19,0.91
2013-3-19,76.4,58.4,44.5,53.7,40.2,32.3,96,58,23,30.06,29.94,10,1,10,0.91
2013-3-20,69.7,54.8,40.4,37.4,30.9,22.8,63,42,23,30.12,30.00,13,2,13,0.91
2013-3-21,65.8,48.9,36.4,35.8,29.6,23.4,83,50,27,30.03,29.82,8,1,8,0.91
2013-3-22,52.4,48.4,43.8,47.8,42.0,32.5,93,79,49,29.88,29.76,8,2,8,0.37
2013-3-23,78.9,62.8,52.4,65.7,58.6,47.4,98,87,64,29.79,29.56,8,1,8,0.92
2013-3-24,62.7,53.6,40.9,60.3,44.5,24.4,98,75,37,29.94,29.56,19,3,19,0.12
2013-3-25,56.6,43.2,33.4,27.1,24.2,20.4,73,49,31,30.24,29.94,20,4,20,0.00
2013-3-26,55.5,40.1,29.6,28.0,23.5,20.8,74,53,34,30.33,30.21,13,2,13,0.00
2013-3-27,67.6,44.7,26.7,38.5,27.1,22.0,86,56,24,30.39,30.24,8,1,8,0.00
2013-3-28,78.0,52.4,31.7,45.4,33.4,27.4,87,55,22,30.30,30.18,9,1,9,0.00
2013-3-29,83.2,59.3,39.5,49.8,41.3,35.8,88,57,25,30.24,30.12,12,1,12,0.00
2013-3-30,76.4,61.4,48.7,58.6,51.3,46.5,94,72,39,30.12,29.91,10,1,11,0.00
2013-3-31,76.4,61.0,52.8,64.3,57.5,51.7,98,89,61,29.97,29.79,14,1,14,0.29
2013-4-1,83.4,63.7,54.2,62.6,50.9,39.8,98,70,25,30.06,29.88,7,1,7,0.00
2013-4-2,87.7,63.9,49.0,51.7,47.2,41.9,91,61,25,30.06,29.97,10,1,10,0.00
2013-4-3,61.8,50.9,46.5,49.7,44.1,35.8,97,80,47,30.03,29.91,7,1,7,0.58
2013-4-4,53.9,50.0,46.0,52.1,48.9,45.2,98,96,86,29.97,29.85,9,1,9,0.00
2013-4-5,71.9,54.3,44.9,49.5,45.7,40.7,98,76,36,30.12,29.97,9,2,9,0.00
2013-4-6,83.0,59.6,40.2,54.5,43.9,38.8,97,63,26,30.09,29.97,9,1,10,0.00
2013-4-7,82.0,62.7,47.4,59.4,51.2,45.2,95,70,37,30.06,29.94,10,1,10,0.00
2013-4-8,88.1,68.7,54.1,64.0,58.1,52.7,98,73,36,30.00,29.88,12,2,12,0.00
2013-4-9,92.2,74.9,66.5,71.9,66.3,63.4,98,77,43,30.00,29.88,14,3,14,0.00
2013-4-10,88.1,75.5,69.4,69.6,66.1,63.4,90,74,51,29.94,29.76,11,3,11,0.00
2013-4-11,73.7,67.2,50.6,70.5,64.5,46.5,98,91,67,29.79,29.62,13,2,13,0.58
2013-4-12,78.0,56.6,41.5,53.0,42.9,36.1,98,67,25,29.97,29.79,10,1,10,0.04
2013-4-13,85.9,62.7,43.8,60.7,46.7,41.1,94,63,26,30.00,29.85,8,0,8,0.00
2013-4-14,72.4,61.7,56.8,63.8,57.5,51.9,98,87,65,29.88,29.62,13,1,13,1.45
2013-4-15,88.8,70.7,56.6,70.5,63.6,56.0,98,81,43,29.94,29.76,8,1,8,0.00
2013-4-16,88.1,76.4,69.9,72.9,69.4,65.9,97,81,51,30.06,29.94,8,1,8,0.00
2013-4-17,91.5,76.1,67.9,71.8,68.2,64.7,98,79,46,30.06,29.91,9,1,9,0.00
2013-4-18,86.5,73.7,59.5,70.5,66.1,57.4,96,78,53,29.91,29.71,10,2,10,0.46
2013-4-19,60.5,51.3,42.2,57.2,40.1,32.2,97,69,36,30.12,29.82,13,3,13,0.33
2013-4-20,71.9,52.9,36.8,43.8,37.9,33.5,93,62,29,30.21,30.09,7,1,7,0.00
2013-4-21,76.7,58.6,44.0,48.4,41.7,38.0,87,59,28,30.21,30.09,6,1,6,0.00
2013-4-22,81.6,62.2,45.1,56.0,48.4,41.0,91,65,34,30.12,29.97,6,0,6,0.00
2013-4-23,79.8,68.9,59.6,64.4,61.1,55.1,91,77,54,30.06,29.94,6,1,6,0.00
2013-4-24,67.6,59.9,51.9,65.0,56.4,46.9,98,88,77,30.21,29.94,12,1,12,0.62
2013-4-25,71.3,56.9,46.9,47.2,43.5,39.4,90,64,32,30.30,30.18,8,1,8,0.05
2013-4-26,80.2,63.3,45.6,59.8,50.0,41.8,93,66,37,30.27,30.15,6,1,6,0.05
2013-4-27,83.4,71.2,62.7,66.8,63.1,58.3,94,77,53,30.15,29.97,8,1,8,0.05
2013-4-28,76.6,68.4,62.9,69.9,65.7,61.7,98,91,73,30.00,29.88,10,0,10,0.29
2013-4-29,80.2,68.8,61.1,67.5,62.7,58.1,98,83,50,29.97,29.85,4,0,4,0.05
2013-4-30,81.1,68.0,57.8,68.6,62.7,56.4,98,85,54,29.91,29.85,6,0,6,0.08
2013-5-1,71.0,65.7,63.2,70.4,65.0,62.7,98,98,92,29.94,29.85,4,0,4,1.04
2013-5-2,71.9,65.9,63.4,67.1,64.5,62.8,98,95,80,29.97,29.85,3,0,3,0.33
2013-5-3,65.4,55.2,42.2,64.8,53.8,40.6,98,95,84,30.00,29.85,13,2,13,0.99
2013-5-4,67.6,52.1,37.1,52.5,42.4,36.1,98,74,35,29.97,29.82,10,1,10,0.05
2013-5-5,59.5,51.9,46.3,48.4,43.1,36.8,95,74,48,29.94,29.79,12,2,12,0.00
2013-5-6,69.0,57.9,48.5,54.7,50.5,45.1,92,78,52,29.94,29.88,15,1,15,0.00
2013-5-7,73.9,61.9,49.0,60.4,53.2,47.3,98,76,49,30.00,29.88,7,1,7,0.00
2013-5-8,81.6,65.0,51.2,63.5,55.5,49.2,96,75,41,30.06,29.97,6,0,6,0.00
2013-5-9,82.7,65.7,56.6,67.6,59.9,54.9,97,83,50,30.09,30.00,6,0,6,0.00
2013-5-12,72.4,65.0,50.6,57.5,48.6,40.2,86,57,37,30.15,30.09,11,1,11,0.00
2013-5-13,76.4,61.1,45.6,54.3,46.7,40.4,92,64,32,30.24,30.12,6,0,6,0.00
2013-5-14,84.1,67.3,51.2,62.2,53.2,48.2,93,66,31,30.21,30.09,6,0,6,0.00
2013-5-15,83.9,72.1,57.1,63.6,59.0,54.5,93,66,42,30.15,29.97,5,0,5,0.00
2013-5-16,82.1,68.9,59.5,66.9,62.9,57.1,94,82,56,30.00,29.85,8,0,8,0.00
2013-5-17,82.7,74.1,69.0,72.4,69.9,66.8,98,87,67,29.97,29.88,6,0,6,0.00
2013-5-18,86.5,76.3,69.5,73.1,71.0,68.9,98,85,61,30.03,29.94,5,0,5,0.00
2013-5-19,88.4,76.8,70.3,72.0,70.4,67.2,98,82,51,30.00,29.91,6,0,6,0.00
2013-5-20,89.7,79.3,72.2,72.6,70.8,67.4,94,77,50,30.00,29.85,7,0,7,0.00
2013-5-21,88.6,79.1,70.4,73.4,69.2,64.6,95,74,49,29.94,29.76,7,1,7,0.00
2013-5-22,79.3,70.4,64.5,70.7,66.7,61.1,98,89,68,29.94,29.82,16,1,16,1.03
2013-5-23,85.7,73.3,62.7,75.5,67.6,61.8,98,84,49,30.03,29.91,5,0,5,0.00
2013-5-24,82.3,72.3,62.2,68.4,63.0,55.4,97,75,49,30.18,30.00,10,0,10,0.00
2013-5-25,81.2,67.7,57.1,61.4,55.9,49.7,89,69,37,30.24,30.12,4,0,4,0.00
2013-5-26,86.5,71.1,58.4,68.9,60.3,53.0,95,73,34,30.18,30.06,5,0,5,0.00
2013-5-27,86.8,72.9,59.6,72.5,64.7,57.3,96,77,51,30.12,29.97,6,0,6,0.00
2013-5-28,85.9,73.4,62.3,68.2,62.4,58.5,94,71,45,30.06,29.97,6,0,6,0.00
2013-5-29,87.4,74.7,64.5,74.6,68.5,59.4,95,82,57,30.03,29.91,6,0,6,0.00
2013-5-30,84.1,75.9,70.6,74.6,70.9,67.4,97,85,66,30.00,29.91,7,0,7,0.00
2013-5-31,85.0,76.6,71.7,75.2,72.1,69.6,97,87,67,30.00,29.88,5,0,5,0.00
2013-6-1,89.0,79.3,72.6,74.3,72.3,70.1,96,80,56,29.97,29.85,4,0,4,0.00
2013-6-2,82.3,73.7,67.4,73.1,69.0,64.6,98,86,59,29.97,29.85,12,0,12,1.00
2013-6-3,85.0,75.7,70.1,71.5,69.2,65.4,98,82,55,29.94,29.85,6,0,6,0.00
2013-6-4,88.4,77.6,68.5,75.1,71.1,65.1,95,81,60,29.94,29.82,0,0,0,0.00
2013-6-5,90.1,77.0,70.4,77.0,72.3,68.2,98,87,56,29.94,29.76,6,0,6,0.41
2013-6-6,84.8,71.8,67.6,76.7,70.0,66.7,98,94,68,29.85,29.74,11,0,11,3.50
2013-6-7,81.2,72.8,67.2,72.4,68.2,65.2,98,87,62,29.88,29.74,7,1,7,0.08
2013-6-8,83.9,73.2,63.6,73.0,68.1,62.4,98,85,60,29.97,29.88,2,0,2,0.16
2013-6-9,84.3,74.4,68.3,75.8,70.9,67.4,98,90,68,29.97,29.85,9,0,9,0.75
2013-6-10,88.1,77.5,68.3,75.0,71.0,67.7,98,82,53,29.97,29.91,6,0,6,0.00
2013-6-11,89.2,79.2,70.6,77.7,73.1,69.6,98,83,55,30.06,29.97,0,0,0,0.00
2013-6-12,91.5,80.3,70.8,77.9,72.3,67.7,97,79,47,30.09,29.97,2,0,2,0.00
2013-6-13,91.3,81.0,70.6,76.7,72.7,68.8,97,78,49,30.03,29.82,7,0,7,0.00
2013-6-14,85.7,77.9,68.1,76.0,68.1,59.5,96,75,42,29.94,29.85,8,0,8,0.09
2013-6-15,88.4,75.9,63.4,71.8,66.7,61.1,95,76,43,30.00,29.94,0,0,0,0.09
2013-6-16,88.8,77.8,69.2,77.3,71.9,67.4,95,83,53,30.03,29.94,4,0,4,0.09
2013-6-17,90.1,79.9,71.5,77.0,72.6,67.9,97,80,50,29.97,29.85,4,0,4,0.09
2013-6-18,86.3,78.2,72.1,74.0,70.8,65.4,94,80,54,29.97,29.85,10,0,10,0.09
2013-6-19,87.4,75.4,71.0,75.7,71.4,66.9,97,88,58,30.00,29.91,5,0,5,0.16
2013-6-20,88.1,77.4,68.5,76.3,71.0,67.6,98,82,55,30.09,30.00,3,0,3,0.09
2013-6-21,88.6,77.8,68.3,76.5,70.9,66.8,97,81,56,30.12,30.03,3,0,3,0.09
2013-6-22,89.0,76.0,69.0,76.2,70.5,64.1,96,84,53,30.12,29.97,10,0,10,0.00
2013-6-23,87.2,77.7,68.5,76.6,71.4,67.3,97,82,59,30.06,29.97,3,0,3,0.00
2013-6-24,89.9,76.9,70.6,77.2,71.8,66.3,97,86,49,30.12,30.03,5,0,5,0.00
2013-6-25,90.2,79.1,70.3,78.0,71.9,67.5,97,81,49,30.09,29.97,4,0,4,0.00
2013-6-26,91.3,80.8,72.8,76.6,72.0,66.0,97,77,46,30.03,29.91,4,0,4,0.00
2013-6-27,92.0,81.9,73.5,75.2,72.5,67.0,96,76,45,30.00,29.88,4,0,4,0.00
2013-6-28,92.2,82.3,73.1,75.8,73.0,67.9,94,75,51,29.88,29.71,6,0,6,0.21
2013-6-29,89.0,77.6,69.7,77.7,70.0,61.1,97,80,41,29.79,29.68,8,0,8,0.05
2013-6-30,87.4,75.0,65.2,74.0,64.7,56.4,96,74,36,29.79,29.71,9,0,9,0.00
2013-7-1,84.8,74.0,64.1,68.7,62.7,57.9,94,71,41,29.91,29.76,9,1,9,0.00
2013-7-2,84.7,74.1,64.1,69.3,62.1,54.9,94,70,37,30.00,29.88,7,0,7,0.00
2013-7-3,86.5,74.5,64.0,69.5,64.7,60.5,93,74,46,30.03,29.94,0,0,0,0.00
2013-7-4,86.6,76.2,68.6,72.2,68.2,64.3,96,78,49,29.97,29.88,3,0,3,0.00
2013-7-5,80.7,74.8,70.1,73.8,71.2,68.1,96,89,78,30.00,29.91,0,0,0,0.00
2013-7-6,84.5,75.4,69.2,74.2,71.1,68.3,98,87,67,30.03,29.94,0,0,0,0.00
2013-7-7,88.1,78.1,72.8,75.3,72.5,70.6,96,84,58,30.06,29.97,3,0,3,0.57
2013-7-8,86.8,78.5,72.8,77.5,74.2,71.9,98,87,64,30.15,30.03,0,0,0,0.00
2013-7-9,90.1,79.4,71.7,78.4,74.0,70.5,97,85,57,30.15,30.03,3,0,3,0.00
2013-7-10,89.2,77.5,73.9,79.5,74.3,68.6,97,91,56,30.06,29.91,3,0,4,0.13
2013-7-11,80.9,75.0,71.0,76.3,73.2,68.2,98,94,80,30.00,29.88,5,0,5,0.67
2013-7-12,88.1,77.0,70.6,75.2,70.6,65.2,98,83,48,29.94,29.85,8,0,8,0.00
2013-7-13,85.9,76.0,66.7,71.4,66.2,59.4,97,75,43,29.97,29.88,7,0,7,0.00
2013-7-14,86.3,75.2,68.6,73.7,70.0,66.8,96,85,62,30.00,29.88,0,0,0,0.00
2013-7-15,87.5,77.1,69.2,75.8,71.5,67.7,98,84,61,30.12,29.97,3,0,3,0.00
2013-7-16,87.7,78.5,71.9,74.3,71.8,69.9,96,81,57,30.18,30.09,4,0,4,0.00
2013-7-17,91.1,80.6,71.3,76.4,71.7,68.1,96,77,48,30.21,30.09,0,0,0,0.00
2013-7-18,87.5,76.3,71.9,76.1,71.5,68.4,96,86,64,30.15,30.00,8,0,8,0.03
2013-7-19,88.1,77.3,70.4,75.9,72.3,69.1,98,86,55,30.06,29.94,5,0,5,0.00
2013-7-20,90.2,78.3,69.5,75.9,71.3,67.1,97,81,52,29.97,29.88,4,0,4,0.00
2013-7-21,91.3,79.0,70.3,75.9,70.0,67.3,95,76,47,30.00,29.91,7,0,7,0.00
2013-7-22,90.4,79.3,72.8,76.7,71.9,68.0,94,79,53,30.03,29.91,7,0,7,0.00
2013-7-23,92.6,82.2,74.4,77.1,71.6,65.9,96,73,43,30.00,29.85,6,0,6,0.00
2013-7-24,84.5,77.9,74.0,75.3,72.9,66.2,96,85,65,29.94,29.85,0,0,0,0.17
2013-7-25,89.3,77.8,70.1,75.7,69.0,60.1,98,77,40,30.00,29.88,6,0,6,0.00
2013-7-26,88.8,76.5,64.9,71.3,66.1,59.0,94,73,40,30.03,29.94,6,0,6,0.00
2013-7-27,79.3,74.1,70.1,76.9,72.3,68.6,98,94,88,29.94,29.85,0,0,0,1.00
2013-7-28,87.0,75.0,70.8,74.7,71.3,68.7,98,90,56,29.94,29.50,5,0,5,0.04
2013-7-29,89.5,81.8,70.3,76.1,72.6,68.5,97,76,52,30.09,30.03,5,0,5,0.00
2013-7-30,91.9,80.9,72.4,78.2,74.2,70.1,96,82,54,30.12,30.00,3,0,3,0.00
2013-7-31,91.3,82.9,76.4,76.3,72.5,63.3,96,73,42,30.06,29.94,4,0,6,0.00
2013-8-1,93.3,82.7,74.8,75.8,72.3,67.3,96,74,44,29.97,29.88,8,0,8,0.00
2013-8-2,94.0,81.3,71.7,77.6,72.3,66.7,95,77,44,30.00,29.91,4,0,4,0.00
2013-8-3,91.5,82.0,73.7,77.8,73.8,69.2,95,78,49,30.03,29.94,4,0,5,0.00
2013-8-4,93.1,80.1,73.5,78.9,74.4,68.3,96,84,46,30.06,29.97,8,0,8,0.71
2013-8-5,91.7,79.6,73.5,80.8,74.8,69.4,98,87,54,30.00,29.91,8,0,8,0.53
2013-8-6,92.8,81.7,74.0,77.9,74.4,67.5,98,80,44,29.97,29.85,4,0,4,0.00
2013-8-7,92.0,81.6,73.7,78.4,74.7,72.0,96,81,54,29.94,29.85,4,0,4,0.00
2013-8-8,92.6,82.8,74.9,79.1,75.8,71.9,96,81,57,29.94,29.85,0,0,0,0.00
2013-8-9,94.0,82.3,75.5,80.4,74.6,70.4,96,79,52,30.00,29.91,8,0,8,0.00
2013-8-10,90.1,80.5,74.4,78.7,74.3,71.7,96,83,60,30.06,29.97,4,0,4,0.00
2013-8-11,89.7,78.6,72.8,78.0,73.3,69.9,96,85,56,30.09,30.03,4,0,4,0.21
2013-8-12,90.1,78.9,71.9,78.7,72.0,68.4,97,81,50,30.09,29.94,7,0,8,0.00
2013-8-13,87.5,75.7,72.4,79.8,73.1,69.8,98,92,62,30.00,29.91,11,0,11,1.54
2013-8-14,83.2,76.2,71.9,75.6,72.8,70.2,98,90,68,29.97,29.88,8,0,8,0.05
2013-8-15,85.6,74.8,66.7,70.4,66.6,60.2,96,78,44,29.97,29.91,5,0,5,0.05
2013-8-16,85.2,74.7,66.1,72.3,68.2,64.0,94,81,56,29.97,29.91,5,0,5,0.05
2013-8-17,81.4,73.2,68.8,69.9,67.8,65.6,94,84,62,30.00,29.94,5,0,5,0.05
2013-8-18,79.6,72.8,68.5,71.3,69.1,66.4,97,89,69,30.03,29.97,4,0,4,0.05
2013-8-19,84.1,75.6,71.3,72.9,71.3,69.0,98,88,62,30.03,29.94,6,0,6,0.05
2013-8-20,88.6,77.1,67.9,76.3,71.1,66.4,97,83,55,30.06,29.97,6,0,6,0.45
2013-8-21,84.1,77.0,72.1,78.3,74.2,71.3,98,92,76,30.12,30.03,3,0,3,0.05
2013-8-22,90.2,78.9,70.8,78.1,73.4,69.9,98,85,54,30.09,29.97,5,0,5,0.03
2013-8-23,91.5,79.3,71.0,78.2,72.4,68.6,98,81,49,30.03,29.91,6,0,6,0.00
2013-8-24,90.2,77.4,70.6,76.3,71.5,68.6,97,84,52,30.09,29.97,8,0,8,0.26
2013-8-25,86.3,77.2,70.6,76.4,71.9,69.6,98,85,63,30.18,30.09,6,0,6,0.00
2013-8-26,88.8,76.8,68.1,70.8,66.7,60.8,95,74,41,30.21,30.09,6,0,6,0.00
2013-8-27,85.9,73.1,62.3,69.9,62.1,56.8,94,72,41,30.12,30.03,6,0,6,0.00
2013-8-28,86.8,73.7,62.2,71.0,62.6,58.7,93,71,40,30.09,29.97,5,0,5,0.00
2013-8-29,91.0,76.4,65.2,72.9,65.7,60.7,93,73,41,30.09,29.97,5,0,5,0.00
2013-8-30,92.9,78.8,68.3,72.9,68.2,64.1,94,73,42,30.00,29.88,6,0,6,0.00
2013-8-31,94.4,79.4,69.5,74.0,70.0,64.6,94,75,40,29.97,29.82,5,0,5,0.00
2013-9-1,93.8,80.6,71.0,73.6,69.7,64.2,95,72,39,29.94,29.82,6,0,6,0.00
2013-9-2,91.3,79.5,71.7,74.8,70.8,65.1,95,77,43,29.94,29.85,8,0,8,0.00
2013-9-3,94.9,81.0,71.9,76.3,70.4,63.2,95,74,36,29.97,29.85,6,0,6,0.00
2013-9-4,91.1,76.8,71.3,75.0,70.8,66.5,96,83,46,30.06,29.94,4,0,4,0.00
2013-9-5,94.6,80.4,70.1,76.8,68.9,60.1,94,72,33,30.09,30.00,5,0,5,0.00
2013-9-6,94.2,79.7,70.4,75.3,69.4,63.0,93,74,38,30.09,29.97,5,0,5,0.00
2013-9-7,93.5,79.0,68.6,73.3,65.7,57.5,93,68,32,30.03,29.94,6,0,6,0.00
2013-9-8,94.9,73.9,65.6,72.0,64.5,56.9,92,76,30,30.00,29.88,6,0,6,0.00
2013-9-9,95.6,78.9,67.2,73.3,66.1,61.5,92,69,33,30.03,29.94,4,0,4,0.00
2013-9-10,96.4,78.9,69.2,74.9,68.5,63.0,92,74,37,30.09,30.00,7,0,7,0.04
2013-9-11,92.8,78.6,68.5,75.9,67.1,60.4,96,72,37,30.12,30.00,5,0,5,0.00
2013-9-12,93.7,77.7,66.7,74.3,64.3,57.2,94,68,32,30.06,29.88,6,0,6,0.00
2013-9-13,90.4,74.8,67.6,74.7,67.5,63.4,96,80,42,29.94,29.82,8,0,8,0.87
2013-9-14,85.4,71.1,61.3,67.6,59.7,52.6,95,71,35,29.97,29.88,7,0,7,0.00
2013-9-15,91.1,72.8,58.7,66.0,59.6,54.3,93,68,29,30.06,29.97,6,0,6,0.00
2013-9-16,90.8,76.2,66.3,73.3,65.0,58.1,92,71,34,30.09,29.97,6,0,6,0.00
2013-9-17,93.3,76.4,64.7,70.8,62.1,55.7,94,66,30,30.09,29.94,6,0,6,0.00
2013-9-18,87.9,76.4,65.8,71.8,67.2,59.1,91,75,54,30.06,29.97,6,0,6,0.00
2013-9-19,93.3,78.5,69.9,72.0,68.0,63.6,94,73,40,30.06,29.94,6,1,6,0.00
2013-9-20,89.9,76.9,71.5,79.5,71.7,68.1,97,85,52,29.97,29.76,8,0,8,1.20
2013-9-21,76.0,71.8,66.7,75.4,69.8,63.6,98,94,79,29.79,29.76,7,0,7,2.32
2013-9-22,78.2,67.0,57.7,63.5,55.8,49.7,93,71,39,29.85,29.76,8,1,8,0.00
2013-9-23,83.8,69.2,54.6,70.1,62.8,51.4,96,81,56,29.91,29.79,3,0,4,0.00
2013-9-24,76.9,73.2,71.2,75.7,72.3,69.5,98,97,91,29.91,29.79,8,0,8,2.54
2013-9-25,85.0,74.1,65.8,75.1,66.5,56.7,98,81,39,29.85,29.82,7,0,7,0.00
2013-9-26,84.3,71.4,60.5,69.5,61.7,56.2,96,75,40,30.00,29.85,8,0,8,0.00
2013-9-27,84.7,72.5,65.2,69.7,65.0,61.5,96,79,48,30.09,29.97,5,0,5,0.00
2013-9-28,83.2,70.1,62.7,65.3,60.9,56.3,93,75,42,30.12,30.03,4,0,4,0.00
2013-9-29,73.0,67.9,62.0,68.8,64.4,58.6,95,89,79,30.09,29.97,4,0,4,0.00
2013-9-30,82.0,72.6,66.8,72.4,68.8,66.0,98,89,66,30.00,29.91,5,0,5,0.17
2013-10-1,85.7,74.0,67.0,72.6,69.2,66.1,98,86,58,30.09,30.00,5,0,5,0.00
2013-10-2,82.5,74.4,70.1,75.2,70.2,68.1,98,88,63,30.12,30.00,4,0,4,0.04
2013-10-3,85.0,74.9,69.2,74.5,71.0,67.4,97,88,62,30.09,30.00,5,0,5,0.04
2013-10-4,89.5,77.3,71.3,75.1,70.7,64.7,97,82,46,30.09,30.00,6,0,6,0.00
2013-10-5,87.9,75.9,70.6,75.1,71.0,67.4,97,86,55,30.06,29.94,6,0,6,0.00
2013-10-6,73.1,67.7,57.5,72.6,62.7,52.2,98,85,58,30.00,29.88,11,1,11,0.08
2013-10-7,72.2,61.2,51.7,53.0,49.1,43.7,92,67,40,30.09,29.97,11,1,11,0.00
2013-10-8,75.1,61.9,51.2,53.3,49.8,45.0,92,68,37,30.09,30.03,7,1,7,0.00
2013-10-9,79.1,64.7,52.3,65.9,58.0,48.2,92,80,59,30.12,30.03,4,0,4,0.00
2013-10-10,82.9,68.4,1.0,68.7,62.7,0.0,97,84,46,30.15,30.03,5,0,5,0.00
2013-10-11,83.8,70.2,61.6,71.2,63.4,59.0,97,81,46,30.09,30.00,4,0,4,0.00
2013-10-12,87.4,72.1,62.0,72.8,64.9,59.7,96,81,44,30.09,30.00,8,0,8,0.00
2013-10-13,71.7,68.5,66.1,68.3,66.5,64.7,96,93,89,30.18,30.09,2,0,2,0.00
2013-10-14,84.8,73.1,64.0,62.4,59.8,52.9,89,66,41,30.15,30.06,0,0,0,0.00
2013-10-15,84.7,70.8,61.8,66.6,62.7,58.8,95,78,44,30.09,29.59,0,0,0,0.00
2013-10-16,82.9,71.4,66.5,71.1,67.7,64.0,98,89,59,30.03,29.94,0,0,0,0.17
2013-10-17,66.5,62.7,53.9,65.9,60.3,51.9,98,92,79,30.06,29.94,0,0,0,0.08
2013-10-18,71.7,59.2,49.2,61.3,53.9,47.5,98,84,49,30.09,29.94,0,0,0,0.00
2013-10-19,71.5,61.0,49.9,60.8,54.4,45.3,97,81,51,30.06,29.53,9,1,9,0.04
2013-10-20,69.5,53.4,40.2,50.2,42.3,36.3,95,70,33,30.09,30.00,6,0,6,0.04
2013-10-21,69.2,55.7,42.4,58.2,49.7,38.2,94,81,56,30.09,29.97,2,0,2,0.04
2013-10-22,73.0,60.9,50.8,62.4,53.8,46.5,98,79,50,30.03,29.97,9,1,9,0.00
2013-10-23,68.8,55.8,46.7,54.0,43.1,36.8,97,67,32,30.15,30.03,11,1,11,0.00
2013-10-24,75.8,57.4,42.5,52.1,44.9,37.8,89,67,35,30.30,30.12,8,1,8,0.00
2013-10-25,64.1,51.7,42.0,44.4,36.2,31.3,76,58,34,30.44,30.30,6,1,6,0.00
2013-10-26,71.0,52.2,37.3,48.1,39.5,31.7,86,65,33,30.33,30.15,4,0,4,0.00
2013-10-27,71.5,57.5,46.0,58.1,51.0,41.4,91,80,57,30.15,30.06,4,0,4,0.00
2013-10-28,76.0,65.2,59.1,66.7,61.1,56.0,98,87,60,30.21,30.09,4,0,4,0.04
2013-10-29,78.7,66.6,58.2,67.6,60.7,56.5,98,83,52,30.27,30.18,6,0,6,0.04
2013-10-30,78.2,67.3,60.0,67.2,62.5,58.3,97,86,59,30.24,30.03,6,0,6,0.04
2013-10-31,72.8,69.6,64.5,70.8,67.8,63.9,98,94,87,30.06,29.79,11,2,11,1.74
2013-11-1,71.2,62.3,50.8,64.1,53.6,41.8,98,77,36,29.94,29.85,7,1,7,0.04
2013-11-2,68.1,55.4,45.8,55.1,42.8,37.4,96,67,34,30.21,29.94,11,1,11,0.04
2013-11-3,66.1,49.6,38.6,45.6,39.2,29.6,92,70,37,30.27,30.15,6,0,6,0.04
2013-11-4,66.3,52.7,38.8,52.3,45.1,34.8,92,77,52,30.30,30.18,4,0,4,0.00
2013-11-5,75.7,63.0,57.1,55.2,52.3,49.3,84,69,47,30.27,30.15,7,1,7,0.00
2013-11-6,75.1,63.9,53.9,67.8,57.0,50.1,97,79,64,30.15,30.06,8,0,8,0.21
2013-11-7,63.1,51.5,40.2,61.1,41.1,33.4,96,71,39,30.36,30.15,13,3,13,0.00
2013-11-8,64.0,48.5,36.8,42.5,36.7,32.6,92,68,35,30.36,30.21,7,0,7,0.00
2013-11-9,66.5,53.9,44.9,48.7,43.6,37.2,87,70,36,30.30,30.18,6,0,6,0.00
2013-11-10,71.5,57.6,48.3,50.6,47.1,42.5,90,71,37,30.33,30.24,6,0,6,0.00
2013-11-11,74.2,56.7,42.9,55.2,45.5,39.3,95,70,35,30.27,30.18,5,0,5,0.00
2013-11-12,57.1,46.3,34.8,53.5,36.6,20.7,98,70,52,30.53,30.21,12,2,12,0.00
2013-11-13,54.1,38.5,28.9,26.6,21.0,18.9,71,51,29,30.59,30.41,6,1,6,0.00
2013-11-14,63.6,43.8,24.9,38.2,29.6,18.0,83,60,35,30.41,30.18,7,0,7,0.00
2013-11-15,64.5,55.5,48.5,59.7,50.7,38.2,97,84,68,30.18,30.03,3,0,3,0.13
2013-11-16,72.4,64.8,57.3,68.6,62.6,56.5,98,93,77,30.09,29.97,7,1,7,0.00
2013-11-17,77.5,70.5,66.8,72.2,68.8,65.8,98,94,78,30.00,29.88,6,1,6,0.00
2013-11-18,74.2,63.4,1.0,71.7,44.3,0.0,98,55,23,30.18,29.97,11,1,11,0.04
2013-11-19,59.1,48.5,36.4,37.6,29.8,25.5,73,51,29,30.24,30.09,11,1,11,0.04
2013-11-20,71.3,49.3,32.8,41.9,35.9,26.7,85,63,34,30.15,30.06,8,0,8,0.04
2013-11-21,72.6,58.4,45.6,59.3,52.5,39.8,93,81,54,30.24,30.15,6,1,6,0.04
2013-11-22,66.7,63.0,59.5,66.1,62.0,58.3,98,96,91,30.30,30.18,6,1,6,0.66
2013-11-23,59.5,49.5,38.8,58.9,47.4,29.6,98,92,69,30.41,30.21,12,2,12,0.42
2013-11-24,49.9,39.5,32.6,29.7,22.2,18.3,71,51,33,30.47,30.33,7,1,7,0.00
2013-11-25,44.7,40.2,35.7,44.2,32.7,18.5,98,76,47,30.33,30.00,6,0,6,2.28
2013-11-26,46.1,43.6,37.1,45.4,43.0,35.3,98,98,93,30.06,29.82,14,2,14,1.16
2013-11-27,43.4,35.0,25.4,35.3,21.8,17.2,93,60,39,30.41,30.06,17,3,17,0.95
2013-11-28,54.6,34.2,21.5,28.0,21.2,16.3,82,63,30,30.47,30.39,6,1,6,0.95
2013-11-29,62.2,38.2,23.8,34.7,23.7,18.6,88,61,26,30.53,30.41,4,0,4,0.00
2013-11-30,70.3,41.8,25.1,38.7,26.9,19.2,87,61,25,30.47,30.24,6,0,6,0.95
2013-12-1,69.9,49.3,31.6,47.5,38.5,25.5,86,69,37,30.24,29.97,4,0,4,0.95
2013-12-2,75.3,59.6,50.6,55.8,50.6,46.8,92,74,48,29.97,29.74,9,1,9,0.95
2013-12-3,80.0,65.5,55.0,65.9,58.2,52.5,98,80,44,29.79,29.71,11,1,11,0.00
2013-12-4,83.4,69.0,62.2,69.3,62.2,58.7,98,82,47,29.94,29.79,11,1,11,0.00
2013-12-5,84.1,69.1,53.0,71.8,62.1,48.7,98,80,48,30.03,29.91,11,2,11,0.00
2013-12-6,52.8,43.6,36.4,50.4,42.4,33.8,98,96,90,30.30,29.97,11,3,11,0.49
2013-12-7,36.4,34.4,32.1,34.7,31.4,29.3,98,89,78,30.41,30.24,9,2,9,0.00
2013-12-8,44.0,39.9,35.3,43.5,39.2,33.0,98,97,92,30.27,30.06,6,0,6,1.37
2013-12-9,46.7,42.6,38.0,44.2,41.6,37.5,98,96,84,30.21,30.09,6,1,6,0.13
2013-12-10,48.7,36.9,27.4,37.3,28.5,23.4,98,74,40,30.41,30.15,15,2,15,0.08
2013-12-11,62.7,35.8,25.6,38.7,26.7,22.0,97,74,27,30.47,30.36,7,0,7,0.00
2013-12-12,56.6,37.7,26.9,27.9,22.2,17.8,86,57,27,30.56,30.39,6,1,6,0.00
2013-12-13,56.6,41.2,24.4,41.5,27.3,18.5,81,60,37,30.39,29.94,8,2,8,0.04
2013-12-14,67.6,53.5,42.9,59.8,47.7,32.3,98,82,52,30.09,29.82,13,3,13,0.54
2013-12-15,42.9,37.0,27.1,32.2,27.0,22.9,85,67,56,30.30,30.09,15,2,15,0.00
2013-12-16,65.9,39.5,24.7,40.8,27.4,20.9,95,67,28,30.36,30.21,6,1,6,0.00
2013-12-17,68.6,43.4,27.6,42.3,30.7,23.3,94,65,31,30.33,30.21,9,1,9,0.00
2013-12-18,71.5,45.5,30.1,46.2,31.8,25.9,96,64,28,30.36,30.21,7,1,7,0.00
2013-12-19,71.9,53.1,34.3,53.0,42.8,28.8,88,70,44,30.21,30.03,10,2,10,0.00
2013-12-20,76.7,65.7,55.7,64.4,59.5,52.7,97,81,59,30.06,29.94,11,2,11,0.00
2013-12-21,81.2,71.6,57.3,64.9,62.3,53.5,94,74,52,29.94,29.71,18,5,18,1.08
2013-12-22,64.0,56.9,45.6,59.6,54.2,41.5,98,91,73,30.21,29.82,11,1,11,0.29
2013-12-23,45.4,39.1,30.5,41.8,28.7,23.7,89,67,48,30.47,30.18,12,4,12,0.00
2013-12-24,52.1,35.1,26.0,25.2,21.5,17.1,83,61,31,30.53,30.39,8,1,8,0.00
2013-12-25,53.5,34.7,22.0,26.9,20.8,16.5,82,60,30,30.41,30.30,8,1,8,0.00
2013-12-26,60.4,39.2,26.5,36.0,26.5,21.2,85,64,35,30.39,30.30,6,1,6,0.00
2013-12-27,56.4,42.2,28.7,37.2,29.9,24.4,89,65,35,30.44,30.33,3,0,4,0.00
2013-12-28,48.3,45.0,42.0,47.2,41.2,31.4,98,87,61,30.33,29.94,4,1,4,0.83
2013-12-29,63.2,48.5,39.3,45.6,40.2,31.7,98,77,36,30.12,29.97,6,1,6,0.00
2013-12-30,51.0,43.5,38.2,44.1,38.0,31.2,97,81,68,30.36,30.09,4,2,4,0.00
2013-12-31,49.0,39.6,35.2,33.0,29.8,27.0,82,69,47,30.44,30.30,4,3,4,0.00
2014-1-1,62.3,48.3,37.1,50.2,40.1,32.4,94,75,47,30.30,30.03,6,2,6,0.12
2014-1-2,55.3,44.9,29.4,54.8,33.7,15.4,98,67,42,30.36,29.94,13,4,13,0.17